GFSNIL_prec_precacc12_132.txt.gz
Total_Precipitation_Accumulation
0.08 0.06 0.01 0.02 0.01 0.02 0.01 0.02 0.09 0.08 0.05 0.04 0.03 0.02 0.02 0.01 0.00 0.02 0.09 0.04 0.01 0.00
0.02 0.01 0.01 0.05 0.06 0.04 0.01 0.07 0.24 0.10 0.05 0.05 0.03 0.06 0.02 0.00 0.00 0.02 0.03 0.01 0.01 0.00
0.00 0.00 0.01 0.12 0.14 0.04 0.08 0.29 0.33 0.11 0.05 0.04 0.04 0.08 0.13 0.05 0.02 0.07 0.02 0.00 0.02 0.01
0.00 0.00 0.01 0.04 0.10 0.02 0.05 0.09 0.07 0.05 0.02 0.01 0.11 0.14 0.26 0.22 0.12 0.14 0.11 0.03 0.04 0.02
0.00 0.00 0.00 0.00 0.01 0.02 0.03 0.05 0.02 0.07 0.06 0.04 0.03 0.06 0.24 0.17 0.16 0.27 0.11 0.06 0.04 0.07
0.00 0.00 0.00 0.00 0.00 0.01 0.04 0.04 0.01 0.07 0.16 0.11 0.07 0.03 0.12 0.16 0.16 0.14 0.14 0.12 0.12 0.12
0.00 0.00 0.00 0.00 0.00 0.00 0.00 0.02 0.01 0.01 0.07 0.05 0.03 0.02 0.00 0.12 0.11 0.15 0.12 0.26 0.17 0.10
0.00 0.00 0.00 0.00 0.00 0.01 0.03 0.01 0.01 0.02 0.05 0.06 0.01 0.01 0.02 0.10 0.17 0.15 0.17 0.19 0.21 0.12
0.05 0.07 0.06 0.12 0.21 0.19 0.15 0.10 0.11 0.13 0.14 0.10 0.02 0.10 0.08 0.04 0.04 0.06 0.09 0.15 0.18 0.18
0.18 0.19 0.19 0.28 0.35 0.26 0.28 0.29 0.22 0.20 0.19 0.17 0.17 0.10 0.05 0.02 0.00 0.02 0.07 0.10 0.16 0.13
0.18 0.29 0.38 0.37 0.38 0.50 0.54 0.54 0.50 0.40 0.32 0.41 0.34 0.16 0.10 0.03 0.00 0.04 0.08 0.10 0.08 0.19
0.41 0.69 0.93 0.92 0.81 0.85 0.83 0.74 0.66 0.61 0.62 0.59 0.57 0.34 0.15 0.08 0.02 0.02 0.07 0.07 0.07 0.07
0.21 0.33 0.44 0.62 0.57 0.41 0.44 0.53 0.52 0.45 0.30 0.23 0.21 0.28 0.29 0.23 0.09 0.04 0.04 0.01 0.01 0.00
0.17 0.25 0.22 0.25 0.28 0.37 0.57 0.67 0.72 0.59 0.50 0.49 0.61 0.61 0.57 0.58 0.49 0.40 0.27 0.17 0.11 0.05

GFSNIL_prec_precacc12_138.txt.gz
Total_Precipitation_Accumulation
0.02 0.02 0.01 0.01 0.01 0.02 0.02 0.03 0.13 0.14 0.11 0.04 0.03 0.02 0.01 0.01 0.02 0.03 0.11 0.07 0.01 0.01
0.02 0.00 0.02 0.04 0.03 0.04 0.03 0.10 0.28 0.15 0.09 0.05 0.04 0.02 0.05 0.02 0.02 0.02 0.05 0.04 0.04 0.01
0.00 0.00 0.03 0.10 0.11 0.06 0.11 0.32 0.45 0.15 0.08 0.05 0.09 0.09 0.08 0.08 0.08 0.07 0.03 0.01 0.04 0.01
0.00 0.00 0.02 0.06 0.07 0.06 0.08 0.11 0.10 0.13 0.07 0.04 0.11 0.12 0.15 0.12 0.08 0.10 0.07 0.02 0.04 0.03
0.00 0.00 0.00 0.02 0.02 0.04 0.05 0.05 0.05 0.11 0.10 0.05 0.04 0.04 0.11 0.07 0.09 0.20 0.09 0.06 0.02 0.01
0.00 0.00 0.00 0.00 0.00 0.02 0.05 0.05 0.04 0.10 0.19 0.13 0.07 0.03 0.02 0.03 0.04 0.04 0.06 0.08 0.09 0.05
0.00 0.00 0.00 0.00 0.00 0.00 0.00 0.02 0.02 0.02 0.07 0.06 0.04 0.02 0.00 0.01 0.03 0.10 0.05 0.12 0.08 0.04
0.00 0.00 0.00 0.01 0.01 0.01 0.03 0.01 0.01 0.02 0.06 0.12 0.11 0.05 0.09 0.05 0.06 0.09 0.11 0.16 0.13 0.05
0.06 0.07 0.04 0.06 0.10 0.08 0.07 0.09 0.13 0.17 0.23 0.20 0.16 0.25 0.23 0.10 0.11 0.13 0.12 0.16 0.13 0.12
0.13 0.12 0.11 0.17 0.10 0.12 0.22 0.24 0.25 0.33 0.33 0.35 0.36 0.33 0.25 0.20 0.05 0.06 0.10 0.11 0.09 0.07
0.44 0.39 0.31 0.35 0.50 0.48 0.32 0.20 0.22 0.25 0.30 0.36 0.43 0.39 0.33 0.22 0.11 0.06 0.11 0.14 0.11 0.17
0.53 0.61 0.63 0.62 0.53 0.35 0.27 0.37 0.40 0.37 0.33 0.45 0.31 0.33 0.21 0.12 0.04 0.04 0.09 0.09 0.10 0.09
0.43 0.40 0.32 0.31 0.31 0.23 0.21 0.25 0.19 0.16 0.11 0.14 0.12 0.11 0.09 0.05 0.03 0.02 0.03 0.01 0.01 0.02
0.26 0.36 0.25 0.25 0.21 0.15 0.11 0.09 0.07 0.04 0.04 0.07 0.10 0.13 0.17 0.18 0.14 0.18 0.24 0.18 0.10 0.06

GFSNIL_prec_precacc12_141.txt.gz
Total_Precipitation_Accumulation
0.02 0.01 0.01 0.01 0.01 0.01 0.02 0.02 0.13 0.14 0.11 0.04 0.03 0.02 0.01 0.01 0.02 0.02 0.10 0.07 0.02 0.01
0.02 0.00 0.01 0.04 0.02 0.03 0.03 0.09 0.27 0.16 0.09 0.04 0.03 0.02 0.04 0.02 0.02 0.01 0.05 0.04 0.05 0.05
0.00 0.00 0.03 0.10 0.11 0.06 0.11 0.30 0.40 0.14 0.07 0.04 0.08 0.07 0.06 0.07 0.08 0.05 0.03 0.01 0.04 0.11
0.00 0.00 0.02 0.06 0.07 0.06 0.08 0.11 0.08 0.12 0.07 0.04 0.05 0.04 0.06 0.07 0.08 0.08 0.06 0.02 0.04 0.03
0.00 0.00 0.00 0.02 0.02 0.04 0.05 0.05 0.05 0.09 0.09 0.05 0.04 0.04 0.06 0.02 0.08 0.13 0.08 0.06 0.02 0.01
0.00 0.00 0.00 0.00 0.00 0.02 0.05 0.05 0.04 0.10 0.18 0.13 0.07 0.07 0.05 0.05 0.03 0.03 0.05 0.08 0.06 0.02
0.00 0.00 0.00 0.00 0.00 0.00 0.00 0.02 0.02 0.02 0.04 0.04 0.08 0.04 0.00 0.01 0.02 0.05 0.04 0.12 0.07 0.03
0.00 0.00 0.00 0.01 0.01 0.00 0.01 0.00 0.01 0.01 0.02 0.09 0.11 0.05 0.10 0.08 0.06 0.06 0.07 0.19 0.11 0.05
0.07 0.06 0.04 0.05 0.07 0.05 0.04 0.06 0.08 0.10 0.12 0.12 0.14 0.28 0.29 0.14 0.15 0.11 0.09 0.12 0.10 0.10
0.30 0.18 0.12 0.17 0.08 0.10 0.19 0.22 0.22 0.27 0.24 0.28 0.30 0.32 0.32 0.36 0.12 0.07 0.10 0.15 0.10 0.06
0.57 0.51 0.41 0.41 0.50 0.47 0.35 0.22 0.21 0.16 0.22 0.36 0.49 0.38 0.30 0.25 0.15 0.06 0.09 0.10 0.08 0.13
0.81 0.80 0.75 0.77 0.66 0.51 0.41 0.43 0.56 0.53 0.37 0.44 0.22 0.37 0.28 0.13 0.04 0.03 0.07 0.07 0.09 0.07
0.56 0.60 0.57 0.62 0.68 0.60 0.52 0.46 0.32 0.22 0.13 0.15 0.11 0.10 0.10 0.06 0.02 0.01 0.02 0.01 0.01 0.02
0.89 0.75 0.73 0.65 0.63 0.45 0.44 0.30 0.19 0.13 0.07 0.04 0.03 0.02 0.06 0.14 0.11 0.15 0.19 0.13 0.06 0.05

GFSNIL_prec_precacc12_147.txt.gz
Total_Precipitation_Accumulation
0.00 0.00 0.00 0.00 0.01 0.00 0.00 0.00 0.00 0.01 0.00 0.01 0.01 0.00 0.00 0.01 0.03 0.02 0.03 0.04 0.03 0.02
0.00 0.00 0.00 0.00 0.00 0.00 0.00 0.00 0.02 0.04 0.02 0.00 0.03 0.01 0.02 0.03 0.09 0.07 0.09 0.06 0.06 0.08
0.00 0.00 0.00 0.01 0.00 0.00 0.00 0.00 0.01 0.00 0.01 0.00 0.00 0.00 0.04 0.13 0.07 0.10 0.09 0.05 0.04 0.16
0.00 0.00 0.00 0.00 0.00 0.00 0.00 0.00 0.01 0.00 0.00 0.00 0.00 0.00 0.00 0.04 0.01 0.06 0.07 0.01 0.00 0.03
0.00 0.00 0.00 0.00 0.00 0.00 0.00 0.00 0.00 0.00 0.00 0.00 0.00 0.00 0.02 0.04 0.01 0.01 0.01 0.00 0.00 0.00
0.00 0.00 0.00 0.00 0.00 0.00 0.00 0.00 0.01 0.02 0.04 0.01 0.00 0.05 0.08 0.13 0.08 0.03 0.02 0.00 0.00 0.00
0.00 0.00 0.00 0.00 0.00 0.00 0.00 0.00 0.01 0.04 0.04 0.06 0.13 0.08 0.10 0.04 0.06 0.12 0.01 0.01 0.00 0.00
0.00 0.00 0.00 0.00 0.00 0.00 0.00 0.00 0.00 0.05 0.11 0.25 0.25 0.17 0.19 0.15 0.08 0.05 0.01 0.12 0.05 0.08
0.03 0.00 0.00 0.00 0.00 0.00 0.00 0.05 0.07 0.07 0.10 0.20 0.26 0.27 0.22 0.17 0.18 0.09 0.07 0.12 0.10 0.11
0.30 0.12 0.10 0.06 0.02 0.03 0.07 0.09 0.12 0.18 0.16 0.18 0.11 0.13 0.24 0.37 0.24 0.08 0.06 0.10 0.09 0.06
0.51 0.43 0.34 0.25 0.20 0.23 0.17 0.09 0.10 0.09 0.14 0.19 0.33 0.40 0.38 0.43 0.29 0.04 0.03 0.04 0.02 0.02
0.71 0.78 0.78 0.62 0.46 0.40 0.27 0.23 0.38 0.41 0.33 0.39 0.28 0.48 0.39 0.25 0.15 0.11 0.08 0.07 0.04 0.02
0.46 0.50 0.58 0.69 0.75 0.71 0.62 0.51 0.43 0.36 0.31 0.31 0.27 0.23 0.24 0.12 0.03 0.03 0.04 0.02 0.02 0.03
0.81 0.66 0.66 0.64 0.88 0.79 0.80 0.70 0.54 0.42 0.29 0.18 0.13 0.07 0.04 0.03 0.01 0.00 0.01 0.00 0.00 0.01